Terug naar catalogus

STARLINK-30575

ActiefCommunicatieVLEO
NORAD 58052·PAYLOAD·🇺🇸 United States

Gelanceerd Oct 13, 2023 vanaf Cape Canaveral Space Force Station

Loading…

Volgende Passages (komende 24 uur)

TLE

VersSource: CelesTrak SupGP

Epoch: Sep 14, 2026, 21:27 UTC

1 58052C 23158B   26257.89423611  .00053386  00000+0  19336-2 0  2570
2 58052  43.0039  38.8824 0001434 275.1411  31.9185 15.27552179    19

Volg STARLINK-30575 in realtime met AllMySat

Download on the App Store